Location: Unspecified
(0.0000°N, 0.0000°E)
Time: 11:25:59
(UTC+00:00)

Tiros 1 - Visible Passes

Search period start: 16 September 2014 00:00
Search period end: 26 September 2014 00:00
Orbit: 633 x 668 km, 48.4° (Epoch: 16 September)

Date Brightness Start Highest point End Pass type
(mag) Time Alt. Az. Time Alt. Az. Time Alt. Az.
19 Sep 9.1 19:26:58 10° N 19:28:33 18° N 19:28:33 18° N visible
20 Sep 8.8 19:53:13 10° NW 19:55:28 28° NW 19:55:28 28° NW visible
21 Sep 8.4 18:39:05 10° N 18:42:54 24° NE 18:44:46 19° E visible
21 Sep 9.8 20:21:03 10° WNW 20:22:35 18° W 20:22:35 18° W visible
22 Sep 7.0 19:05:13 10° NW 19:09:58 82° NE 19:12:01 34° SE visible
23 Sep 8.9 19:32:56 10° WNW 19:37:00 28° SW 19:39:26 18° S visible
24 Sep 7.1 18:17:14 10° NW 18:21:59 76° NE 18:26:41 10° SE visible
25 Sep 10.2 04:51:56 10° SSE 04:53:15 11° SE 04:54:34 10° ESE visible
25 Sep 9.0 18:44:50 10° WNW 18:49:01 31° SW 18:53:10 10° S visible
